Corning, AR

12:26 AM CST on November 20, 2017 (GMT -0600)
Corning

Weather History for K4M9 - December, 2012

Change the Weather History Date:

Monday, December 10, 2012

  Actual Average (KARG) Record (KARG)
Temperature  
Mean Temperature 37 °F -  
Max Temperature 46 °F 47 °F 64 °F (1996)
Min Temperature 28 °F 33 °F 12 °F (2005)
Degree Days  
Heating Degree Days 28    
Moisture  
Dew Point 27 °F    
Average Humidity 73    
Maximum Humidity 81    
Minimum Humidity 60    
Precipitation  
Precipitation 0.00 in - - ()
Sea Level Pressure  
Sea Level Pressure 29.99 in    
Wind  
Wind Speed 12 mph (NNW)    
Max Wind Speed 18 mph    
Max Gust Speed 26 mph    
Visibility 10 miles    
Events      
Averages and records for this station are not official NWS values.
T = Trace of Precipitation, MM = Missing Value Source: NWS Daily Summary

Daily Weather History Graph

Daily Weather History Graph

Search for Another Location

Airport or City:

Trip Planner

Search our weather history database for the weather conditions in past years. The results will help you decide how hot, cold, wet, or windy it might be!

Date:

Astronomy

Dec. 10, 2012 Rise Set
Actual Time 7:03 AM CST 4:47 PM CST
Civil Twilight 6:35 AM CST 5:16 PM CST
Nautical Twilight 6:02 AM CST 5:48 PM CST
Astronomical Twilight 5:31 AM CST 6:19 PM CST
Moon 3:50 AM CST (12/10) 2:34 PM CST (12/10)
Length of Visible Light 10h 41m
Length of Day
9h 43m
Waning Crescent, 10% of the Moon is Illuminated
Dec 10
Waning Crescent
Dec 13
New
Dec 19
First Quarter
Dec 28
Full
Jan 4
Last Quarter

Hourly Weather History & Observations

Time (CST) Temp. Windchill Dew Point Humidity Pressure Visibility Wind Dir Wind Speed Gust Speed Precip Events Conditions
12:15 AM 46.4 °F 39.8 °F 41.0 °F 81% 29.87 in 10.0 mi North 16.1 mph 24.2 mph N/A   Unknown
12:55 AM 46.4 °F 41.9 °F 41.0 °F 81% 29.88 in 10.0 mi NNW 9.2 mph - N/A   Unknown
1:15 AM 46.4 °F 41.1 °F 39.2 °F 76% 29.88 in 10.0 mi North 11.5 mph 17.3 mph N/A   Unknown
1:35 AM 46.4 °F 40.1 °F 37.4 °F 71% 29.88 in 10.0 mi NNW 15.0 mph - N/A   Unknown
1:55 AM 44.6 °F 37.8 °F 33.8 °F 66% 29.87 in 10.0 mi NNW 15.0 mph - N/A   Unknown
2:15 AM 44.6 °F 37.8 °F 33.8 °F 66% 29.88 in 10.0 mi NNW 15.0 mph - N/A   Unknown
2:35 AM 42.8 °F 35.8 °F 33.8 °F 70% 29.88 in 10.0 mi NNW 13.8 mph - N/A   Unknown
2:55 AM 42.8 °F 36.6 °F 35.6 °F 76% 29.89 in 10.0 mi NNW 11.5 mph - N/A   Unknown
3:15 AM 41.0 °F 35.8 °F 35.6 °F 81% 29.89 in 10.0 mi North 8.1 mph - N/A   Unknown
3:35 AM 41.0 °F 34.7 °F 35.6 °F 81% 29.89 in 10.0 mi NNW 10.4 mph - N/A   Unknown
3:55 AM 41.0 °F 33.9 °F 35.6 °F 81% 29.88 in 10.0 mi NNW 12.7 mph 17.3 mph N/A   Unknown
4:15 AM 41.0 °F 34.7 °F 33.8 °F 76% 29.88 in 10.0 mi North 10.4 mph - N/A   Unknown
4:35 AM 39.2 °F 33.0 °F 32.0 °F 75% 29.89 in 10.0 mi NNW 9.2 mph - N/A   Unknown
4:55 AM 37.4 °F 30.3 °F 30.2 °F 75% 29.90 in 10.0 mi NNW 10.4 mph - N/A   Unknown
5:15 AM 37.4 °F 28.5 °F 32.0 °F 81% 29.90 in 10.0 mi NNW 15.0 mph 18.4 mph N/A   Unknown
5:35 AM 37.4 °F 29.8 °F 28.4 °F 70% 29.91 in 10.0 mi NW 11.5 mph - N/A   Unknown
6:15 AM 35.6 °F 26.2 °F 28.4 °F 75% 29.92 in 10.0 mi NNW 15.0 mph - N/A   Unknown
6:55 AM 32.0 °F 20.8 °F 26.6 °F 80% 29.95 in 10.0 mi NW 17.3 mph - N/A   Unknown
7:15 AM 32.0 °F 20.8 °F 24.8 °F 75% 29.97 in 10.0 mi NW 17.3 mph 25.3 mph N/A   Unknown
7:35 AM 32.0 °F 21.6 °F 24.8 °F 75% 29.97 in 10.0 mi NW 15.0 mph 20.7 mph N/A   Unknown
7:55 AM 32.0 °F 20.8 °F 24.8 °F 75% 29.96 in 10.0 mi NW 17.3 mph 26.5 mph N/A   Unknown
8:15 AM 32.0 °F 21.6 °F 23.0 °F 69% 29.97 in 10.0 mi NW 15.0 mph - N/A   Unknown
8:35 AM 32.0 °F 20.5 °F 24.8 °F 75% 29.97 in 10.0 mi NNW 18.4 mph - N/A   Unknown
8:55 AM 32.0 °F 21.2 °F 24.8 °F 75% 29.98 in 10.0 mi NW 16.1 mph 21.9 mph N/A   Unknown
9:15 AM 32.0 °F 22.1 °F 24.8 °F 75% 29.98 in 10.0 mi NW 13.8 mph - N/A   Unknown
9:35 AM 32.0 °F 21.6 °F 24.8 °F 75% 29.99 in 10.0 mi NW 15.0 mph 19.6 mph N/A   Unknown
9:55 AM 33.8 °F 24.8 °F 24.8 °F 70% 29.98 in 10.0 mi NNW 12.7 mph - N/A   Unknown
10:35 AM 32.0 °F 21.6 °F 24.8 °F 75% 29.99 in 10.0 mi NW 15.0 mph 21.9 mph N/A   Unknown
10:55 AM 32.0 °F 21.6 °F 24.8 °F 75% 29.99 in 10.0 mi NW 15.0 mph 21.9 mph N/A   Unknown
11:15 AM 32.0 °F 21.2 °F 23.0 °F 69% 29.98 in 10.0 mi NW 16.1 mph 23.0 mph N/A   Unknown
11:35 AM 32.0 °F 21.2 °F 23.0 °F 69% 29.98 in 10.0 mi NNW 16.1 mph 19.6 mph N/A   Unknown
11:55 AM 32.0 °F 23.0 °F 23.0 °F 69% 29.97 in 10.0 mi NNW 11.5 mph 18.4 mph N/A   Unknown
12:15 PM 32.0 °F 22.5 °F 23.0 °F 69% 29.96 in 10.0 mi NW 12.7 mph - N/A   Unknown
12:35 PM 33.8 °F 23.9 °F 24.8 °F 70% 29.96 in 10.0 mi NNW 15.0 mph 18.4 mph N/A   Unknown
12:55 PM 33.8 °F 23.9 °F 24.8 °F 70% 29.96 in 10.0 mi NW 15.0 mph 19.6 mph N/A   Unknown
1:15 PM 35.6 °F 26.2 °F 24.8 °F 65% 29.97 in 10.0 mi NW 15.0 mph 21.9 mph N/A   Unknown
1:35 PM 35.6 °F 26.6 °F 24.8 °F 65% 29.96 in 10.0 mi NNW 13.8 mph 18.4 mph N/A   Unknown
1:55 PM 35.6 °F 27.5 °F 24.8 °F 65% 29.95 in 10.0 mi NW 11.5 mph 18.4 mph N/A   Unknown
2:15 PM 35.6 °F 26.6 °F 24.8 °F 65% 29.95 in 10.0 mi NW 13.8 mph 18.4 mph N/A   Unknown
2:35 PM 37.4 °F 28.5 °F 24.8 °F 60% 29.96 in 10.0 mi NNW 15.0 mph - N/A   Unknown
2:55 PM 37.4 °F 28.9 °F 24.8 °F 60% 29.98 in 10.0 mi NNW 13.8 mph - N/A   Unknown
3:15 PM 35.6 °F 25.5 °F 24.8 °F 65% 29.99 in 10.0 mi NNW 17.3 mph 21.9 mph N/A   Unknown
3:35 PM 35.6 °F 25.9 °F 24.8 °F 65% 30.00 in 10.0 mi NNW 16.1 mph 21.9 mph N/A   Unknown
3:55 PM 35.6 °F 26.2 °F 24.8 °F 65% 30.00 in 10.0 mi NNW 15.0 mph - N/A   Unknown
4:15 PM 33.8 °F 24.8 °F 23.0 °F 65% 30.01 in 10.0 mi NW 12.7 mph - N/A   Unknown
4:35 PM 33.8 °F 24.8 °F 23.0 °F 65% 30.02 in 10.0 mi NNW 12.7 mph - N/A   Unknown
4:55 PM 33.8 °F 24.3 °F 23.0 °F 65% 30.03 in 10.0 mi NW 13.8 mph - N/A   Unknown
5:15 PM 32.0 °F 23.6 °F 23.0 °F 69% 30.04 in 10.0 mi NNW 10.4 mph - N/A   Unknown
5:35 PM 32.0 °F 24.2 °F 23.0 °F 69% 30.04 in 10.0 mi NNW 9.2 mph - N/A   Unknown
5:55 PM 32.0 °F 24.2 °F 23.0 °F 69% 30.04 in 10.0 mi NNW 9.2 mph - N/A   Unknown
6:15 PM 32.0 °F 25.6 °F 24.8 °F 75% 30.04 in 10.0 mi North 6.9 mph - N/A   Unknown
6:35 PM 32.0 °F 25.6 °F 24.8 °F 75% 30.06 in 10.0 mi NNW 6.9 mph - N/A   Unknown
6:55 PM 32.0 °F 24.2 °F 24.8 °F 75% 30.06 in 10.0 mi NNW 9.2 mph - N/A   Unknown
7:15 PM 32.0 °F 25.6 °F 23.0 °F 69% 30.07 in 10.0 mi NNW 6.9 mph - N/A   Unknown
7:35 PM 30.2 °F 24.3 °F 24.8 °F 80% 30.07 in 10.0 mi North 5.8 mph - N/A   Unknown
7:55 PM 30.2 °F 23.4 °F 23.0 °F 75% 30.08 in 10.0 mi North 6.9 mph - N/A   Unknown
8:15 PM 30.2 °F 23.4 °F 23.0 °F 75% 30.08 in 10.0 mi North 6.9 mph - N/A   Unknown
8:35 PM 30.2 °F 23.4 °F 23.0 °F 75% 30.09 in 10.0 mi NNW 6.9 mph - N/A   Unknown
8:55 PM 28.4 °F 22.2 °F 23.0 °F 80% 30.09 in 10.0 mi NNW 5.8 mph - N/A   Unknown
9:15 PM 28.4 °F 22.2 °F 23.0 °F 80% 30.10 in 10.0 mi NNW 5.8 mph - N/A   Unknown
9:35 PM 28.4 °F 24.6 °F 23.0 °F 80% 30.10 in 10.0 mi NNW 3.5 mph - N/A   Unknown
9:55 PM 28.4 °F 23.3 °F 23.0 °F 80% 30.10 in 10.0 mi NNW 4.6 mph - N/A   Unknown
10:15 PM 28.4 °F 22.2 °F 23.0 °F 80% 30.11 in 10.0 mi NNW 5.8 mph - N/A   Unknown
10:35 PM 28.4 °F 23.3 °F 23.0 °F 80% 30.11 in 10.0 mi NNW 4.6 mph - N/A   Unknown
10:55 PM 28.4 °F 24.6 °F 23.0 °F 80% 30.11 in 10.0 mi North 3.5 mph - N/A   Unknown
11:15 PM 28.4 °F 24.6 °F 23.0 °F 80% 30.12 in 10.0 mi NNW 3.5 mph - N/A   Unknown
11:35 PM 28.4 °F 24.6 °F 23.0 °F 80% 30.13 in 10.0 mi NNW 3.5 mph - N/A   Unknown
11:55 PM 28.4 °F 24.6 °F 23.0 °F 80% 30.13 in 10.0 mi NNW 3.5 mph - N/A   Unknown